When you browse on this site, cookies collect data to enhance your experience and personalize the content and advertising you see.
Visit our Privacy Policy to learn more. By continuing to use the site, you agree to this use of cookies and data.
  • In Sweden
  • List of Countries
  • For 7 days
  • Water Temperature
  • Weather Map
  • Weather Widgets
  • user-avatar
    Login

    Hourly Weather Dori

    Today, 28 May, Thursday

    Time Temperature Precipitation Wind Pressure Humidity
    00:00 +34°C° 0 mm 1 mps 735 mmHg 38%
    01:00 +34°C° 0.2 mm 1 mps 735 mmHg 39%
    02:00 +34°C° 0.2 mm 2 mps 734 mmHg 40%
    03:00 +34°C° 0.2 mm 2 mps 734 mmHg 41%
    04:00 +33°C° 0.5 mm 3 mps 734 mmHg 44%
    05:00 +33°C° 0.5 mm 4 mps 735 mmHg 46%
    06:00 +33°C° 0.5 mm 5 mps 735 mmHg 49%
    07:00 +33°C° 0 mm 5 mps 735 mmHg 50%
    08:00 +33°C° 0 mm 4 mps 736 mmHg 50%
    09:00 +33°C° 0 mm 4 mps 736 mmHg 51%
    10:00 +33°C° 0 mm 3 mps 736 mmHg 49%
    11:00 +34°C° 0 mm 3 mps 735 mmHg 47%
    12:00 +34°C° 0 mm 2 mps 735 mmHg 45%
    13:00 +35°C° 0 mm 3 mps 734 mmHg 42%
    14:00 +36°C° 0 mm 3 mps 734 mmHg 40%
    15:00 +37°C° 0 mm 4 mps 733 mmHg 37%
    16:00 +37°C° 0 mm 4 mps 733 mmHg 35%
    17:00 +37°C° 0 mm 4 mps 733 mmHg 33%
    18:00 +37°C° 0 mm 4 mps 733 mmHg 31%
    19:00 +37°C° 0 mm 4 mps 733 mmHg 33%
    20:00 +36°C° 0 mm 4 mps 733 mmHg 34%
    21:00 +35°C° 0 mm 4 mps 734 mmHg 36%
    22:00 +35°C° 0 mm 3 mps 734 mmHg 36%
    23:00 +34°C° 0 mm 3 mps 733 mmHg 37%

    Tomorrow, 29 May, Friday

    Time Temperature Precipitation Wind Pressure Humidity
    00:00 +34°C° 0 mm 2 mps 733 mmHg 37%
    01:00 +34°C° 0 mm 2 mps 733 mmHg 37%
    02:00 +34°C° 0 mm 3 mps 733 mmHg 37%
    03:00 +33°C° 0 mm 3 mps 732 mmHg 37%
    04:00 +33°C° 0 mm 3 mps 732 mmHg 37%
    05:00 +33°C° 0 mm 3 mps 733 mmHg 37%
    06:00 +33°C° 0 mm 3 mps 733 mmHg 37%
    07:00 +34°C° 0 mm 3 mps 733 mmHg 35%
    08:00 +35°C° 0 mm 2 mps 734 mmHg 33%
    09:00 +35°C° 0 mm 2 mps 734 mmHg 32%
    10:00 +36°C° 0 mm 3 mps 734 mmHg 30%
    11:00 +37°C° 0 mm 3 mps 733 mmHg 28%
    12:00 +38°C° 0 mm 3 mps 733 mmHg 26%
    13:00 +39°C° 0 mm 2 mps 732 mmHg 24%
    14:00 +40°C° 0 mm 2 mps 731 mmHg 22%
    15:00 +41°C° 0 mm 2 mps 731 mmHg 20%
    16:00 +41°C° 0 mm 2 mps 731 mmHg 20%
    17:00 +41°C° 0 mm 2 mps 730 mmHg 20%
    18:00 +41°C° 0 mm 2 mps 730 mmHg 19%
    19:00 +40°C° 0 mm 2 mps 731 mmHg 21%
    20:00 +39°C° 0 mm 3 mps 731 mmHg 22%
    21:00 +38°C° 0 mm 3 mps 731 mmHg 23%
    22:00 +38°C° 0 mm 3 mps 731 mmHg 24%
    23:00 +37°C° 0 mm 3 mps 731 mmHg 25%

    Day after tomorrow, 30 May, Saturday

    Time Temperature Precipitation Wind Pressure Humidity
    00:00 +37°C° 0 mm 3 mps 731 mmHg 25%
    01:00 +36°C° 0 mm 2 mps 731 mmHg 27%
    02:00 +35°C° 0 mm 2 mps 731 mmHg 28%
    03:00 +34°C° 0 mm 1 mps 731 mmHg 29%
    04:00 +34°C° 0 mm 2 mps 731 mmHg 29%
    05:00 +34°C° 0 mm 3 mps 732 mmHg 29%
    06:00 +34°C° 0 mm 3 mps 732 mmHg 30%
    07:00 +35°C° 0 mm 4 mps 733 mmHg 32%
    08:00 +36°C° 0 mm 6 mps 733 mmHg 34%
    09:00 +39°C° 0 mm 7 mps 734 mmHg 36%
    10:00 +40°C° 0 mm 6 mps 733 mmHg 32%
    11:00 +41°C° 0 mm 5 mps 733 mmHg 28%
    12:00 +43°C° 0 mm 4 mps 733 mmHg 24%
    13:00 +43°C° 0 mm 3 mps 732 mmHg 22%
    14:00 +43°C° 0 mm 2 mps 731 mmHg 20%
    15:00 +43°C° 0 mm 2 mps 731 mmHg 18%
    16:00 +43°C° 0 mm 2 mps 730 mmHg 17%
    17:00 +43°C° 0 mm 2 mps 730 mmHg 17%
    18:00 +43°C° 0 mm 2 mps 730 mmHg 16%
    19:00 +42°C° 0 mm 1 mps 731 mmHg 17%
    20:00 +42°C° 0 mm 1 mps 731 mmHg 18%
    21:00 +41°C° 0 mm 1 mps 731 mmHg 19%
    22:00 +40°C° 0 mm 2 mps 731 mmHg 20%
    23:00 +40°C° 0 mm 3 mps 732 mmHg 22%

    31 May, Sunday

    Time Temperature Precipitation Wind Pressure Humidity
    00:00 +40°C° 0 mm 4 mps 732 mmHg 23%
    01:00 +40°C° 0 mm 5 mps 732 mmHg 27%
    02:00 +39°C° 0 mm 5 mps 732 mmHg 30%
    03:00 +38°C° 0 mm 6 mps 732 mmHg 34%
    04:00 +36°C° 0 mm 6 mps 732 mmHg 38%
    05:00 +35°C° 0 mm 6 mps 733 mmHg 43%
    06:00 +34°C° 0 mm 7 mps 733 mmHg 47%
    07:00 +35°C° 0 mm 7 mps 734 mmHg 44%
    08:00 +36°C° 0 mm 7 mps 734 mmHg 42%
    09:00 +38°C° 0 mm 8 mps 734 mmHg 39%
    10:00 +39°C° 0 mm 7 mps 734 mmHg 36%
    11:00 +41°C° 0 mm 6 mps 734 mmHg 33%
    12:00 +42°C° 0 mm 5 mps 733 mmHg 29%
    13:00 +43°C° 0 mm 4 mps 733 mmHg 26%
    14:00 +44°C° 0 mm 3 mps 732 mmHg 23%
    15:00 +43°C° 0 mm 2 mps 731 mmHg 20%
    16:00 +44°C° 0 mm 3 mps 731 mmHg 20%
    17:00 +44°C° 0 mm 3 mps 731 mmHg 20%
    18:00 +44°C° 0 mm 3 mps 731 mmHg 19%
    19:00 +43°C° 0 mm 3 mps 732 mmHg 20%
    20:00 +41°C° 0 mm 2 mps 732 mmHg 20%
    21:00 +41°C° 0 mm 2 mps 733 mmHg 21%
    22:00 +40°C° 0 mm 3 mps 733 mmHg 23%
    23:00 +40°C° 0 mm 4 mps 733 mmHg 25%

    1 June, Monday

    Time Temperature Precipitation Wind Pressure Humidity
    00:00 +40°C° 0 mm 5 mps 733 mmHg 27%
    01:00 +39°C° 0 mm 5 mps 732 mmHg 29%
    02:00 +37°C° 0 mm 5 mps 732 mmHg 31%
    03:00 +36°C° 0 mm 4 mps 732 mmHg 33%
    04:00 +36°C° 0 mm 5 mps 732 mmHg 36%
    05:00 +35°C° 0 mm 5 mps 733 mmHg 38%
    06:00 +35°C° 0 mm 5 mps 733 mmHg 41%
    07:00 +36°C° 0 mm 5 mps 733 mmHg 37%
    08:00 +39°C° 0 mm 6 mps 734 mmHg 33%
    09:00 +41°C° 0 mm 6 mps 734 mmHg 29%
    10:00 +42°C° 0 mm 6 mps 734 mmHg 26%
    11:00 +45°C° 0 mm 5 mps 733 mmHg 23%
    12:00 +46°C° 0 mm 5 mps 733 mmHg 20%
    13:00 +47°C° 0 mm 4 mps 732 mmHg 18%
    14:00 +46°C° 0 mm 3 mps 731 mmHg 16%
    15:00 +47°C° 0 mm 3 mps 731 mmHg 15%
    16:00 +46°C° 0 mm 2 mps 730 mmHg 14%
    17:00 +46°C° 0 mm 2 mps 730 mmHg 14%
    18:00 +46°C° 0 mm 2 mps 730 mmHg 14%
    19:00 +45°C° 0 mm 2 mps 730 mmHg 15%
    20:00 +43°C° 0 mm 2 mps 731 mmHg 16%
    21:00 +42°C° 0 mm 2 mps 731 mmHg 17%
    22:00 +42°C° 0 mm 3 mps 731 mmHg 18%
    23:00 +40°C° 0 mm 3 mps 731 mmHg 19%

    2 June, Tuesday

    Time Temperature Precipitation Wind Pressure Humidity
    00:00 +41°C° 0 mm 4 mps 731 mmHg 21%
    01:00 +40°C° 0 mm 5 mps 731 mmHg 25%
    02:00 +39°C° 0 mm 7 mps 731 mmHg 30%
    03:00 +38°C° 0 mm 8 mps 731 mmHg 34%
    04:00 +38°C° 0 mm 8 mps 731 mmHg 38%
    05:00 +37°C° 0 mm 8 mps 732 mmHg 41%
    06:00 +35°C° 0 mm 8 mps 732 mmHg 44%
    07:00 +37°C° 0 mm 9 mps 732 mmHg 43%
    08:00 +38°C° 0 mm 9 mps 733 mmHg 41%
    09:00 +39°C° 0 mm 9 mps 733 mmHg 39%
    10:00 +42°C° 0 mm 9 mps 733 mmHg 35%
    11:00 +44°C° 0 mm 9 mps 732 mmHg 31%
    12:00 +45°C° 0 mm 8 mps 732 mmHg 27%
    13:00 +46°C° 0 mm 7 mps 731 mmHg 24%
    14:00 +47°C° 0 mm 6 mps 730 mmHg 22%
    15:00 +48°C° 0 mm 5 mps 730 mmHg 19%
    16:00 +47°C° 0.1 mm 5 mps 730 mmHg 19%
    17:00 +46°C° 0.1 mm 5 mps 730 mmHg 20%
    18:00 +46°C° 0.1 mm 5 mps 729 mmHg 20%
    19:00 +43°C° 0.5 mm 7 mps 730 mmHg 28%
    20:00 +39°C° 0.5 mm 9 mps 731 mmHg 35%
    21:00 +37°C° 0.5 mm 12 mps 731 mmHg 43%
    22:00 +37°C° 0 mm 10 mps 731 mmHg 40%
    23:00 +37°C° 0 mm 8 mps 731 mmHg 37%
    Show more